Weather History for CYRB - September, 2012

Change the Weather History Date:

Tuesday, September 25, 2012

  Actual Average Record
Temperature  
Mean Temperature 28 °F -  
Max Temperature 31 °F 22 °F 35 °F (2002)
Min Temperature 25 °F 16 °F 1 °F (2004)
Degree Days  
Heating Degree Days 37    
Moisture  
Dew Point 26 °F    
Average Humidity 84    
Maximum Humidity 93    
Minimum Humidity 73    
Precipitation  
Precipitation 0.01 in - - ()
Sea Level Pressure  
Sea Level Pressure 29.88 in    
Wind  
Wind Speed 17 mph ()    
Max Wind Speed 30 mph    
Max Gust Speed 30 mph    
Visibility 9.4 miles    
Events Snow    
Averages and records for this station are not official NWS values.
T = Trace of Precipitation, MM = Missing Value Source: Averaged Metar Reports

Daily Weather History Graph

Daily Weather History Graph

Search for Another Location

Airport or City:

Trip Planner

Search our weather history database for the weather conditions in past years. The results will help you decide how hot, cold, wet, or windy it might be!

Date:

Astronomy

Sep. 25, 2012 Rise Set
Actual Time 7:15 AM CDT 7:04 PM CDT
Civil Twilight 5:55 AM CDT 8:23 PM CDT
Nautical Twilight 4:07 AM CDT 10:09 PM CDT
Astronomical Twilight Sun does not set 12:38 AM CDT
Moon 7:24 PM CDT (9/25) No Moon Set
Length of Visible Light 14h 28m
Length of Day
11h 49m
Waxing Gibbous, 80% of the Moon is Illuminated
Sep 25
Waxing Gibbous
Sep 29
Full
Oct 8
Last Quarter
Oct 15
New
Oct 21
First Quarter

Hourly Weather History & Observations

Time (CDT) Temp. Windchill Dew Point Humidity Pressure Visibility Wind Dir Wind Speed Gust Speed Precip Events Conditions
12:00 AM 28.4 °F 14.4 °F 26.6 °F 93% 30.00 in 15.0 mi SSE 23.0 mph 29.9 mph N/A Snow Low Drifting Snow
12:48 AM - - - N/A% - 10.0 mi SE 19.6 mph 27.6 mph N/A Snow Light Snow Grains
1:00 AM 29 °F - 26 °F 83% 29.99 in 7 mi SE 29.9 mph - - Snow Snow Grains
1:00 AM 28.4 °F 14.7 °F 26.6 °F 93% 29.99 in 8.0 mi SE 21.9 mph 29.9 mph N/A Snow Light Snow Grains
2:00 AM 30.2 °F 18.1 °F 26.6 °F 86% 29.98 in 12.0 mi SSE 18.4 mph 25.3 mph N/A Snow Light Snow Grains
3:00 AM 30.2 °F 18.1 °F 26.6 °F 86% 29.97 in 15.0 mi SSE 18.4 mph - N/A Snow Light Snow Grains
4:00 AM 28.4 °F 17.0 °F 24.8 °F 86% 29.94 in 15.0 mi SE 15.0 mph - N/A Snow Light Snow Grains
4:37 AM - - - N/A% - 15.0 mi SE 15.0 mph - N/A   Mostly Cloudy
5:00 AM 28.4 °F 16.6 °F 24.8 °F 86% 29.93 in 15.0 mi SE 16.1 mph - N/A   Mostly Cloudy
6:00 AM 30.2 °F 18.1 °F 24.8 °F 80% 29.92 in 15.0 mi SSE 18.4 mph - N/A   Mostly Cloudy
7:00 AM 29 °F - 25 °F 79% 29.90 in 15 mi SE 12.7 mph - -   Partly Cloudy
7:00 AM 30.2 °F 20.2 °F 24.8 °F 80% 29.90 in 15.0 mi SE 12.7 mph - N/A   Mostly Cloudy
8:00 AM 30.2 °F 18.1 °F 24.8 °F 80% 29.89 in 15.0 mi SE 18.4 mph - N/A   Mostly Cloudy
9:00 AM 30.2 °F 18.5 °F 24.8 °F 80% 29.88 in 15.0 mi SE 17.3 mph 23.0 mph N/A   Overcast
10:00 AM 30.2 °F 17.8 °F 24.8 °F 80% 29.88 in 15.0 mi SE 19.6 mph - N/A   Mostly Cloudy
11:00 AM 30.2 °F 18.5 °F 26.6 °F 86% 29.87 in 15.0 mi SE 17.3 mph - N/A   Overcast
12:00 PM 32.0 °F 21.6 °F 24.8 °F 75% 29.87 in 15.0 mi SSE 15.0 mph - N/A   Overcast
1:00 PM 31 °F - 26 °F 73% 29.86 in 15 mi SSE 15.0 mph - -   Overcast
1:00 PM 32.0 °F 21.6 °F 26.6 °F 80% 29.86 in 15.0 mi SSE 15.0 mph - N/A   Overcast
2:00 PM 32.0 °F 22.1 °F 26.6 °F 80% 29.85 in 15.0 mi SE 13.8 mph - N/A   Overcast
3:00 PM 32.0 °F 22.5 °F 26.6 °F 80% 29.85 in 15.0 mi SE 12.7 mph - N/A   Overcast
4:00 PM 32.0 °F 22.1 °F 26.6 °F 80% 29.84 in 15.0 mi SE 13.8 mph - N/A   Overcast
5:00 PM 32.0 °F 23.0 °F 26.6 °F 80% 29.82 in 15.0 mi SE 11.5 mph - N/A   Overcast
5:22 PM - - - N/A% - 10.0 mi SE 13.8 mph - N/A   Unknown
5:43 PM - - - N/A% - 2.0 mi SE 13.8 mph - N/A   Unknown
5:48 PM - - - N/A% - 1.0 mi ESE 15.0 mph - N/A   Unknown
6:00 PM 30.2 °F 18.9 °F 26.6 °F 86% 29.81 in 1.2 mi SE 16.1 mph - N/A Snow Light Snow
6:31 PM - - - N/A% - 1.5 mi SE 13.8 mph - N/A   Unknown
6:43 PM - - - N/A% - 1.2 mi SSE 15.0 mph - N/A   Unknown
7:00 PM 31 °F - 28 °F 83% 29.82 in 1 mi SSE 16.1 mph - - Snow Light Snow
7:00 PM 30.2 °F 18.9 °F 28.4 °F 93% 29.82 in 1.0 mi SSE 16.1 mph - N/A Snow Light Snow
8:00 PM 30.2 °F 17.8 °F 28.4 °F 93% 29.80 in 1.2 mi SSE 19.6 mph - N/A Snow Light Snow
8:53 PM - - - N/A% - 1.5 mi SE 18.4 mph - N/A   Unknown
9:00 PM 30.2 °F 17.8 °F 28.4 °F 93% 29.78 in 1.5 mi SE 19.6 mph - N/A Snow Light Snow
9:45 PM - - - N/A% - 2.5 mi SE 25.3 mph - N/A   Unknown
10:00 PM 30.2 °F 16.5 °F 28.4 °F 93% 29.76 in 2.5 mi SE 24.2 mph - N/A Snow Light Snow
10:35 PM - - - N/A% - 3.0 mi SE 24.2 mph - N/A   Unknown
11:00 PM 30.2 °F 16.5 °F 26.6 °F 86% 29.74 in 3.0 mi SE 24.2 mph - N/A Snow Light Snow